Regional Weather Roundup
Issued by NWS

Current Version | Previous Version | Text Only | Print | Product List | Glossary On
Versions: 1 2 3 4 5 6 7 8 9 10 11 12 13 14 15 16 17 18 19 20 21 22 23 24 25 26 27 28 29 30 31 32 33 34 35 36 37 38 39 40 41 42 43 44 45 46 47 48 49 50
568
ASUS43 KMKX 210021
RWRWI

WISCONSIN REGIONAL WEATHER ROUNDUP
NATIONAL WEATHER SERVICE MILWAUKEE/SULLIVAN WI
700 PM CDT TUE AUG 20 2019

NOTE: "FAIR" INDICATES FEW OR NO CLOUDS BELOW 12,000 FEET WITH NO
SIGNIFICANT WEATHER AND/OR OBSTRUCTIONS TO VISIBILITY.

WIZ001-002-006>008-014>016-023>028-210100-
NORTHWEST WISCONSIN

CITY           SKY/WX    TMP DP  RH WIND       PRES   REMARKS
SUPERIOR ARPT  PTSUNNY   75  62  62 N9        29.93R
6HR MIN TEMP:  74; 6HR MAX TEMP:  82;

ASHLAND        PTSUNNY   78  65  63 NW5       29.91S HX  80
6HR MIN TEMP:  71; 6HR MAX TEMP:  80;

HAYWARD        FAIR      78  65  63 W5        29.93F HX  80
6HR MIN TEMP:  68; 6HR MAX TEMP:  79;

SIREN          CLOUDY    79  64  60 W3        29.93S HX  81
6HR MIN TEMP:  71; 6HR MAX TEMP:  81;

CUMBERLAND     PTSUNNY   72  63  73 W3        29.95S
RICE LAKE      FAIR      77  60  55 NW3       29.95S
6HR MIN TEMP:  65; 6HR MAX TEMP:  79;

CHETEK         CLOUDY    77  67  72 CALM      29.94S
6HR MIN TEMP:  64; 6HR MAX TEMP:  80;

LADYSMITH      FAIR      75  65  70 NW7       29.95F
6HR MIN TEMP:  68; 6HR MAX TEMP:  79;

EAU CLAIRE     FAIR      78  66  66 NW5       29.92F HX  80
6HR MIN TEMP:  65; 6HR MAX TEMP:  81; 6HR PCP:  0.01;

MENOMONIE      FAIR      74  65  71 W3        29.93F
6HR MIN TEMP:  62; 6HR MAX TEMP:  78; 6HR PCP:  0.05;

NEW RICHMOND   FAIR      78  65  64 W6        29.95S HX  80
6HR MIN TEMP:  68; 6HR MAX TEMP:  80;

OSCEOLA        FAIR      78  67  67 NW5       29.97R HX  80
6HR MIN TEMP:  71; 6HR MAX TEMP:  81;

$$

WIZ003>005-009-010-017-018-210100-
NORTH CENTRAL WISCONSIN

CITY           SKY/WX    TMP DP  RH WIND       PRES   REMARKS
MANITOWISH WTR MOCLDY    72  63  72 CALM      29.95S
6HR MIN TEMP:  70; 6HR MAX TEMP:  76;

ARBOR VITAE    CLOUDY    74  65  72 CALM      29.95S
6HR MIN TEMP:  72; 6HR MAX TEMP:  77;

WOODRUFF       CLOUDY    74  65  72 CALM      29.95S
6HR MIN TEMP:  72; 6HR MAX TEMP:  77;

RHINELANDER    FAIR      75  62  64 CALM      29.95F
6HR MIN TEMP:  71; 6HR MAX TEMP:  77;

EAGLE RIVER    FAIR      72  60  66 SW3       29.94F
6HR MIN TEMP:  72; 6HR MAX TEMP:  76;

LAND O LAKES   FAIR      72  61  67 CALM      29.97R
6HR MIN TEMP:  73; 6HR MAX TEMP:  78;

PHILLIPS       FAIR      73  65  76 CALM      29.94F
6HR MIN TEMP:  69; 6HR MAX TEMP:  76;

TOMAHAWK       FAIR      73  62  66 W5        29.96R
6HR MIN TEMP:  69; 6HR MAX TEMP:  77;

MEDFORD        FAIR      73  63  71 CALM      29.96S
6HR MIN TEMP:  67; 6HR MAX TEMP:  74;

MERRILL        FAIR      74  64  72 W5        29.95S
6HR MIN TEMP:  73; 6HR MAX TEMP:  78;

$$

WIZ029-030-035-036-043>047-210100-
CENTRAL WISCONSIN

CITY           SKY/WX    TMP DP  RH WIND       PRES   REMARKS
WAUSAU         FAIR      76  62  62 W6        29.92F
6HR MIN TEMP:  73; 6HR MAX TEMP:  78;

MOSINEE        PTCLDY    75  63  64 W5        29.96F
MARSHFIELD     FAIR      75  63  66 W5        29.95F
6HR MIN TEMP:  73; 6HR MAX TEMP:  78;

STEVENS POINT  FAIR      74  62  64 CALM      29.95S
6HR MIN TEMP:  74; 6HR MAX TEMP:  78;

WAUPACA        FAIR      80  65  60 W3        29.93S HX  82
6HR MIN TEMP:  79; 6HR MAX TEMP:  85;

WAUTOMA        FAIR      79  70  74 NW6       29.93S HX  82
6HR MIN TEMP:  78; 6HR MAX TEMP:  82;

WISC RAPIDS    FAIR      78  65  63 NW5       29.94F HX  80
6HR MIN TEMP:  77; 6HR MAX TEMP:  80;

CAMP DOUGLAS   PTCLDY    79  70  73 W7        29.93S HX  81
$$

WIZ011>013-019>022-031-037>040-048>050-210100-
NORTHEAST WISCONSIN

CITY           SKY/WX    TMP DP  RH WIND       PRES   REMARKS
ANTIGO         FAIR      73  62  69 W6        29.95S
6HR MIN TEMP:  71; 6HR MAX TEMP:  77;

SHAWANO        FAIR      79  67  68 W6        29.91F HX  81
6HR MIN TEMP:  79; 6HR MAX TEMP:  82;

OCONTO         FAIR      77  68  74 CALM      29.89F
6HR MIN TEMP:  77; 6HR MAX TEMP:  81;

STURGEON BAY   FAIR      75  68  78 S5        29.91F
6HR MIN TEMP:  75; 6HR MAX TEMP:  79;

GREEN BAY      FAIR      80  70  71 VRB3      29.91F HX  83
6HR MIN TEMP:  80; 6HR MAX TEMP:  83;

MANITOWOC      FAIR      73  69  87 SE7       29.91F
6HR MIN TEMP:  73; 6HR MAX TEMP:  78;

APPLETON       PTCLDY    79  66  65 SW5       29.91F HX  81
CLINTONVILLE   FAIR      78  66  66 SW5       29.91F HX  80
6HR MIN TEMP:  79; 6HR MAX TEMP:  82;

OSHKOSH        FAIR      80  68  66 VRB5      29.91S HX  83
6HR MIN TEMP:  78; 6HR MAX TEMP:  83;

$$

WIZ032>034-041-042-053>061-210100-
SOUTHWEST WISCONSIN

CITY           SKY/WX    TMP DP  RH WIND       PRES   REMARKS
LA CROSSE      MOCLDY    82  69  64 N6        29.92S HX  85
6HR MIN TEMP:  76; 6HR MAX TEMP:  85; 6HR PCP: TRACE;

SPARTA         MOCLDY    77  67  70 W5        29.94S
6HR MIN TEMP:  73; 6HR MAX TEMP:  81;

VIROQUA        FAIR      79  72  79 CALM      29.95S HX  82
6HR MIN TEMP:  77; 6HR MAX TEMP:  82;

BOSCOBEL       FAIR      82  67  60 SW5       29.93R HX  84
6HR MIN TEMP:  80; 6HR MAX TEMP:  87;

PRAIRIE DU CHI FAIR      82  66  59 CALM      29.92R HX  84
6HR MIN TEMP:  79; 6HR MAX TEMP:  83;

PLATTEVILLE    FAIR      78  72  83 CALM      29.95R
6HR MIN TEMP:  76; 6HR MAX TEMP:  82;

$$

WIZ056-057-062-063-064-067-068-210100-
SOUTH CENTRAL WISCONSIN

CITY           SKY/WX    TMP DP  RH WIND       PRES   REMARKS
REEDSBURG      FAIR      79  68  70 W6        29.93R HX  81
6HR MIN TEMP:  79; 6HR MAX TEMP:  82;

BARABOO/DELLS  FAIR      77  67  71 W3        29.94R
6HR MIN TEMP:  78; 6HR MAX TEMP:  83;

LONE ROCK      FAIR      80  68  66 SW5       29.93R HX  83
6HR MIN TEMP:  80; 6HR MAX TEMP:  84;

MINERAL POINT  FAIR      81  72  74 S3        29.95R HX  84
MADISON        FAIR      79  66  64 CALM      29.92R HX  81
6HR MIN TEMP:  77; 6HR MAX TEMP:  82;

MIDDLETON      FAIR      80  -6   3 CALM      29.94R
WATERTOWN      FAIR      78  67  71 CALM      29.93R
6HR MIN TEMP:  76; 6HR MAX TEMP:  80;

MONROE         FAIR      76  66  70 CALM      29.95R
6HR MIN TEMP:  70; 6HR MAX TEMP:  80;

JANESVILLE     MOCLDY    79  66  65 SE6       29.92S HX  81
$$

WIZ051-052-058>065-066-070>072-210100-
SOUTHEAST WISCONSIN

CITY           SKY/WX    TMP DP  RH WIND       PRES   REMARKS
MILWAUKEE      FAIR      80  68  66 W8        29.91R HX  83
6HR MIN TEMP:  74; 6HR MAX TEMP:  81; 6HR PCP:  0.01;

WAUKESHA       CLEAR     75  64  69 SW5       29.94R
MILWAUKEE/TIMM CLEAR     79  61  53 W3        29.92R HX  80
RACINE         FAIR      77  69  76 NW5       29.93R
6HR MIN TEMP:  73; 6HR MAX TEMP:  78; 6HR PCP:  0.25;

KENOSHA        FAIR      78  69  73 NW3       29.92R HX  80
6HR MIN TEMP:  72; 6HR MAX TEMP:  80; 6HR PCP:  0.19;

FOND DU LAC    FAIR      82  68  62 W6        29.92F HX  85
6HR MIN TEMP:  80; 6HR MAX TEMP:  84;

SHEBOYGAN      FAIR      76  69  79 S3        29.92S
6HR MIN TEMP:  75; 6HR MAX TEMP:  80;

WEST BEND      FAIR      79  68  69 W5        29.93R HX  81
JUNEAU         FAIR      76  71  83 CALM      29.95R
6HR MIN TEMP:  75; 6HR MAX TEMP:  80;

$$

LSZ147-162-210100-
LAKE SUPERIOR

STATION/POSITION TIME  TEMP    WIND        PRES    WAVE
                       AIR SEA DIR/SP/G            HT/PER
                 (UTC) (F)     (DEG/KT/KT) (MB)    (FT/S)
W MID LAKE BUOY  2350   66 64  280/  6/  8 1012.1R   1
DEVILS ISLAND    0000   70     360/  9/ 10 1012.8R
SAXON HARBOR     2340   76     290/  2/  3 1012.2S
$$

LMZ867-665-643>646-210100-
LAKE MICHIGAN

STATION/POSITION TIME  TEMP    WIND        PRES    WAVE
                       AIR SEA DIR/SP/G            HT/PER
                 (UTC) (F)     (DEG/KT/KT) (MB)    (FT/S)
S GREEN BAY BUOY 0000   81 73  220/  4



USA.gov is the U.S. government's official web portal to all federal, state and local government web resources and services.